Tracking 30995 objects as of 5-Jul-2025
HD Live streaming from Space Station
objects crossing your sky now

COSMOS 684

Track COSMOS 684 now!
10-day predictions
COSMOS 684 is classified as:


NORAD ID: 7442
Int'l Code: 1974-072H
Perigee: 1,422.2 km
Apogee: 1,473.4 km
Inclination: 74.0 °
Period: 114.7 minutes
Semi major axis: 7818 km
RCS: 0.701 m2 (medium)
Launch date: September 19, 1974
Source: Commonwealth of Independent States (former USSR) (CIS)
Launch site: PLESETSK MISSILE AND SPACE COMPLEX (PKMTR)
Your satellite tracking list
WESTFORD NEEDLES
Track 1 satellite(s)




NASA's NSSDC Master Catalog

Two Line Element Set (TLE):
1 07442U 74072H   25186.42427328  .00000005  00000-0  13054-3 0  9992
2 07442  74.0330 168.7843 0032705 347.3039 168.2433 12.55715554328212
Source of the keplerian elements: AFSPC